[[{"header":{"parameterUnit":"m.s-1","parameterCategory":1,"la1":30.2991,"la2":30.254,"lo1":-89.0895,"lo2":-89.0444,"dy":0.0017,"dx":0.0017,"nx":28,"ny":28,"refTime":"2024-04-18T09:00:00:Z","depth":0,"parameterNumber":2,"parameterNumberName":"U-component_of_WINDS"},"data":[0,0,0,0,0,0,0,0,0,0,0,0,0,0,0,0,0,0,0,0,0,0,0,0,0,0,0,0,0,0,0,0,0,0,0,0,0,0,0,0,0,0,0,0,0,0,0,0,0,0,0,0,0,0,0,0,0,0,-2.4004,-2.4004,0,-2.3992,-2.3992,-2.3991,-2.3953,-2.3952,-2.3951,-2.3951,-2.3938,-2.3938,-2.3938,0,0,0,0,0,0,0,0,0,0,0,0,0,-2.3996,-2.3996,-2.4004,-2.4004,-2.4004,-2.3992,-2.3992,-2.3991,-2.3953,-2.3952,-2.3951,-2.395,-2.3937,-2.3938,-2.3938,0,0,0,0,0,0,0,0,0,0,0,0,0,-2.3993,-2.3996,-2.4004,-2.3983,-2.3981,-2.3992,-2.3992,-2.3991,-2.3954,-2.3952,-2.3951,-2.395,-2.3937,-2.3938,-2.3939,-2.3968,0,0,-2.3941,-2.3941,0,0,0,0,0,0,0,0,-2.3993,-2.3994,-2.3986,-2.3985,-2.3983,-2.3973,-2.3984,-2.3984,-2.3954,-2.3964,-2.3951,-2.3949,-2.395,-2.395,-2.395,-2.3967,-2.3967,-2.3941,-2.3941,-2.3941,-2.3941,0,0,0,0,0,0,0,-2.3994,-2.3994,-2.3999,-2.3986,-2.3984,-2.3975,-2.3973,-2.3984,-2.3964,-2.3963,-2.396,-2.3959,-2.3949,-2.395,-2.395,-2.3967,-2.3941,-2.3941,-2.3942,-2.3942,-2.4009,-2.401,0,0,0,0,0,0,-2.3997,-2.3994,-2.3999,-2.3999,-2.3985,-2.3976,-2.3974,-2.3977,-2.3964,-2.3961,-2.396,-2.3958,-2.3949,-2.3949,-2.3949,-2.3983,-2.3941,-2.3942,-2.3942,-2.4007,-2.4009,-2.4011,0,0,0,0,0,0,-2.3997,-2.3998,-2.4,-2.3996,-2.3995,-2.3978,-2.3981,-2.3978,-2.3978,-2.3962,-2.3959,-2.3965,-2.3948,-2.3948,-2.3964,-2.3982,-2.3942,-2.3943,-2.4006,-2.4008,-2.401,-2.405,0,0,0,0,0,0,-2.3997,-2.3998,-2.4008,-2.3996,-2.3996,-2.4015,-2.3982,-2.3978,-2.3979,-2.3976,-2.3965,-2.3962,-2.3947,-2.3963,-2.3965,-2.3982,-2.3943,-2.4004,-2.4007,-2.4009,-2.4047,-2.4053,-2.4059,0,0,0,0,0,-2.3996,-2.402,-2.4009,-2.401,-2.4008,-2.4016,-2.4015,-2.3998,-2.3981,-2.3992,-2.3982,-2.3962,-2.398,-2.3965,-2.3966,-2.3984,-2.4003,-2.4006,-2.4009,-2.4044,-2.4052,-2.4058,0,0,0,0,0,0,-2.4033,-2.4018,-2.4005,-2.4025,-2.4022,-2.4009,-2.4022,-2.4006,-2.4007,-2.4004,-2.3982,-2.398,-2.3999,-2.3993,-2.3977,-2.4013,-2.3988,-2.3992,-2.4015,-2.4022,-2.4028,-2.4028,-2.3944,0,0,0,0,0,-2.4044,-2.4051,-2.4037,-2.4056,-2.4055,-2.4039,-2.4042,-2.4029,-2.4024,-2.4023,-2.4014,-2.4011,-2.4015,-2.4019,-2.4022,-2.4047,-2.4044,-2.406,-2.4066,-2.4071,-2.4073,-2.4087,-2.4094,-2.4021,-2.4021,-2.4021,0,0,-2.4065,-2.4058,-2.4063,-2.4063,-2.4059,-2.4067,-2.4038,-2.4047,-2.4053,-2.4024,-2.4038,-2.4032,-2.4027,-2.4048,-2.4056,-2.4044,-2.4094,-2.4075,-2.4079,-2.4079,-2.4091,-2.4098,-2.4104,-2.4023,-2.4022,-2.4022,0,0,-2.4108,-2.4103,-2.4119,-2.4116,-2.4111,-2.41,-2.4105,-2.4094,-2.4089,-2.4104,-2.4082,-2.409,-2.4098,-2.4096,-2.4096,-2.4141,-2.4123,-2.4143,-2.4172,-2.4186,-2.4191,-2.4196,-2.4212,-2.4218,-2.4147,-2.4147,-2.4147,0,-2.4135,-2.4146,-2.4129,-2.414,-2.4141,-2.4116,-2.4132,-2.413,-2.4127,-2.4128,-2.4115,-2.4126,-2.4121,-2.4141,-2.4152,-2.4153,-2.4157,-2.4143,-2.4192,-2.4197,-2.4201,-2.4216,-2.4222,-2.4149,-2.4149,-2.4148,-2.4148,0,-2.4179,-2.4188,-2.4201,-2.4199,-2.4201,-2.4215,-2.42,-2.4206,-2.4194,-2.4185,-2.4201,-2.4194,-2.4197,-2.4201,-2.4189,-2.422,-2.4212,-2.4196,-2.4171,-2.4211,-2.4224,-2.423,-2.4152,-2.4151,-2.4151,-2.415,0,0,-2.4241,-2.4232,-2.4236,-2.4236,-2.423,-2.4236,-2.4249,-2.4252,-2.4257,-2.4256,-2.4267,-2.4277,-2.4262,-2.4262,-2.425,-2.4262,-2.4298,-2.4244,-2.4244,-2.4254,-2.4332,-2.4343,-2.435,-2.4288,-2.4289,-2.429,-2.4332,0,-2.4281,-2.4302,-2.4289,-2.4312,-2.432,-2.4299,-2.4311,-2.4309,-2.4302,-2.4308,-2.4301,-2.4308,-2.4288,-2.4288,-2.43,-2.4292,-2.4314,-2.4289,-2.4297,-2.4298,-2.4297,-2.4357,-2.4368,-2.4408,-2.4337,-2.4338,-2.4339,0,-2.4329,-2.4331,-2.4356,-2.435,-2.4353,-2.4363,-2.4366,-2.4372,-2.437,-2.4364,-2.4366,-2.4352,-2.4366,-2.4343,-2.4361,-2.4345,-2.4348,-2.4345,-2.4347,-2.4345,-2.4319,-2.4355,-2.442,-2.4425,-2.4347,-2.4346,-2.4346,0,-2.4371,-2.438,-2.4396,-2.4396,-2.439,-2.4398,-2.4396,-2.4393,-2.4396,-2.4399,-2.4401,-2.4405,-2.4407,-2.4411,-2.4399,-2.4383,-2.4419,-2.4395,-2.4414,-2.4414,-2.442,-2.4419,-2.4485,-2.4426,-2.4426,-2.4426,-2.4425,0,-2.4415,-2.4431,-2.4415,-2.4425,-2.4442,-2.4427,-2.4445,-2.4441,-2.4439,-2.4448,-2.4431,-2.444,-2.4424,-2.4431,-2.4422,-2.4439,-2.444,-2.4436,-2.4433,-2.4436,-2.4437,-2.4436,-2.4433,-2.4427,-2.4427,-2.4426,-2.4426,0,-2.4463,-2.4453,-2.4469,-2.4463,-2.4462,-2.4475,-2.4469,-2.4478,-2.4472,-2.4484,-2.4486,-2.4475,-2.4484,-2.4473,-2.448,-2.4474,-2.4496,-2.449,-2.4497,-2.4494,-2.4513,-2.4511,-2.4579,-2.4587,-2.4525,-2.4525,-2.4526,0,-2.4491,-2.4503,-2.4498,-2.4503,-2.4502,-2.451,-2.4514,-2.4501,-2.4505,-2.4506,-2.4515,-2.4522,-2.4526,-2.4541,-2.4534,-2.454,-2.4533,-2.4557,-2.4533,-2.4537,-2.4532,-2.453,-2.4532,-2.456,-2.4561,-2.4562,-2.4562,0,-2.4542,-2.4537,-2.4542,-2.4547,-2.4552,-2.4555,-2.4557,-2.4562,-2.4549,-2.4555,-2.4563,-2.4567,-2.4575,-2.4583,-2.4587,-2.4585,-2.4572,-2.457,-2.4574,-2.4577,-2.458,-2.4577,-2.4508,-2.4568,-2.4567,-2.4567,-2.4566,-2.4566,-2.4579,-2.4589,-2.4588,-2.4595,-2.4595,-2.4598,-2.4606,-2.4602,-2.4609,-2.4614,-2.4607,-2.4618,-2.4618,-2.4622,-2.4623,-2.4631,-2.4621,-2.4628,-2.4629,-2.463,-2.4633,-2.4581,-2.4632,-2.4632,-2.4632,-2.4632,-2.4632,0,-2.4628,-2.4627,-2.4634,-2.4637,-2.4643,-2.4632,-2.4634,-2.4639,-2.4649,-2.465,-2.4656,-2.4667,-2.4674,-2.467,-2.4676,-2.4684,-2.4678,-2.4686,-2.4684,-2.4684,-2.4642,-2.4637,-2.4691,-2.4691,-2.4691,-2.4691,-2.4691,-2.4691,-2.4654,-2.4669,-2.4665,-2.4681,-2.468,-2.4691,-2.4693,-2.4696,-2.4696,-2.4709,-2.4716,-2.4713,-2.4712,-2.4719,-2.4726,-2.4724,-2.4727,-2.4737,-2.4733,-2.4693,-2.4687,-2.4682,-2.4676,-2.4738,-2.4738,-2.4775,-2.4775,-2.4775]},{"header":{"parameterUnit":"m.s-1","parameterCategory":1,"la1":30.2991,"la2":30.254,"lo1":-89.0895,"lo2":-89.0444,"dy":0.0017,"dx":0.0017,"nx":28,"ny":28,"refTime":"2024-04-18T09:00:00:Z","depth":0,"parameterNumber":3,"parameterNumberName":"V-component_of_WINDS"},"data":[0,0,0,0,0,0,0,0,0,0,0,0,0,0,0,0,0,0,0,0,0,0,0,0,0,0,0,0,0,0,0,0,0,0,0,0,0,0,0,0,0,0,0,0,0,0,0,0,0,0,0,0,0,0,0,0,0,0,3.2212,3.2212,0,3.2248,3.2249,3.2249,3.2307,3.2308,3.2309,3.231,3.2345,3.2345,3.2345,0,0,0,0,0,0,0,0,0,0,0,0,0,3.2192,3.2192,3.2212,3.2212,3.2213,3.2248,3.2249,3.2249,3.2307,3.2308,3.2309,3.231,3.2345,3.2345,3.2345,0,0,0,0,0,0,0,0,0,0,0,0,0,3.2211,3.2192,3.2211,3.2246,3.2249,3.2248,3.2249,3.2249,3.2306,3.2308,3.231,3.2311,3.2345,3.2345,3.2345,3.2313,0,0,3.2345,3.2345,0,0,0,0,0,0,0,0,3.221,3.2212,3.224,3.2243,3.2247,3.2275,3.2255,3.227,3.2306,3.2284,3.231,3.2312,3.232,3.2322,3.2326,3.2314,3.2316,3.2345,3.2345,3.2345,3.2345,0,0,0,0,0,0,0,3.2209,3.2211,3.2226,3.224,3.2245,3.2259,3.2264,3.2258,3.2293,3.2287,3.2291,3.2294,3.2322,3.2325,3.2327,3.2316,3.2345,3.2345,3.2345,3.2345,3.2284,3.2283,0,0,0,0,0,0,3.2202,3.2209,3.2225,3.2227,3.2232,3.2258,3.2263,3.2264,3.2293,3.2299,3.2293,3.2297,3.2325,3.2327,3.2328,3.2295,3.2345,3.2345,3.2344,3.2286,3.2284,3.2282,0,0,0,0,0,0,3.2202,3.2203,3.2223,3.2219,3.2223,3.2257,3.2257,3.2264,3.2267,3.2298,3.2305,3.229,3.2326,3.2328,3.2317,3.2297,3.2344,3.2344,3.2288,3.2285,3.2283,3.2226,0,0,0,0,0,0,3.2201,3.2203,3.2191,3.2219,3.2223,3.2211,3.2256,3.2264,3.2267,3.2273,3.2297,3.2302,3.2328,3.2317,3.2317,3.2297,3.2344,3.229,3.2287,3.2284,3.223,3.2222,3.2215,0,0,0,0,0,3.22,3.2172,3.219,3.2191,3.2209,3.221,3.2213,3.2243,3.2265,3.2254,3.2274,3.2302,3.2299,3.2315,3.2316,3.2296,3.2291,3.2287,3.2284,3.2233,3.2224,3.2215,0,0,0,0,0,0,3.2139,3.2176,3.2196,3.2176,3.219,3.222,3.2206,3.2231,3.2238,3.2243,3.2279,3.2284,3.2269,3.2281,3.2299,3.2268,3.2299,3.2296,3.226,3.2252,3.2244,3.2242,3.2344,0,0,0,0,0,3.2123,3.2122,3.2154,3.2133,3.2139,3.2171,3.2173,3.2196,3.2211,3.2216,3.2236,3.2249,3.2252,3.2252,3.2256,3.2232,3.2239,3.2219,3.2212,3.2205,3.2202,3.2193,3.2185,3.2271,3.2271,3.2271,0,0,3.209,3.2111,3.2107,3.2122,3.2135,3.2133,3.2176,3.2171,3.217,3.2215,3.2207,3.2222,3.2239,3.2222,3.2215,3.2232,3.218,3.2201,3.2196,3.2196,3.2188,3.218,3.2173,3.2268,3.2269,3.2269,0,0,3.203,3.2045,3.2031,3.2043,3.2064,3.2086,3.2082,3.2109,3.2121,3.2113,3.2149,3.2148,3.215,3.2162,3.2169,3.2116,3.2142,3.2116,3.2078,3.2069,3.2062,3.2056,3.2039,3.2032,3.2113,3.2113,3.2112,0,3.1987,3.1985,3.202,3.2014,3.202,3.2063,3.2049,3.206,3.2079,3.2083,3.2101,3.2108,3.2122,3.211,3.2098,3.2101,3.2099,3.2114,3.206,3.2055,3.205,3.2034,3.2027,3.2109,3.211,3.211,3.211,0,3.1932,3.1931,3.1917,3.1937,3.1941,3.1931,3.1965,3.1965,3.1988,3.2008,3.2001,3.202,3.203,3.2029,3.205,3.202,3.203,3.2054,3.2086,3.2038,3.2024,3.2018,3.2105,3.2106,3.2107,3.2108,0,0,3.1832,3.1874,3.1868,3.1879,3.1906,3.1905,3.1898,3.1909,3.191,3.1922,3.1918,3.1921,3.1944,3.1951,3.1975,3.1966,3.1926,3.1992,3.1993,3.198,3.1897,3.1879,3.1872,3.1944,3.1943,3.1942,3.1896,0,3.1778,3.1769,3.1801,3.1784,3.1784,3.1826,3.182,3.1836,3.1856,3.1859,3.188,3.1882,3.1912,3.1917,3.191,3.1932,3.191,3.1936,3.1941,3.194,3.1936,3.1864,3.1845,3.1801,3.189,3.1889,3.1889,0,3.1714,3.1725,3.1708,3.1739,3.174,3.1734,3.1748,3.175,3.177,3.1785,3.1794,3.1822,3.1818,3.1849,3.1845,3.1862,3.1866,3.1877,3.1876,3.1878,3.1912,3.1865,3.1787,3.1781,3.188,3.1881,3.1881,0,3.1645,3.1656,3.1648,3.1656,3.1691,3.1686,3.17,3.1721,3.1727,3.1739,3.1743,3.1754,3.176,3.1768,3.1799,3.1818,3.1792,3.1825,3.1805,3.1804,3.1797,3.1797,3.1719,3.1798,3.1798,3.1798,3.1798,0,3.1582,3.157,3.1618,3.1613,3.1602,3.164,3.1628,3.1646,3.1665,3.1665,3.1702,3.1701,3.1741,3.1744,3.1768,3.1762,3.1764,3.1777,3.1783,3.1774,3.1772,3.1777,3.1781,3.1796,3.1797,3.1797,3.1797,0,3.1503,3.1534,3.1529,3.1563,3.1572,3.1562,3.1592,3.1589,3.1612,3.1611,3.1613,3.1649,3.1655,3.1687,3.17,3.1716,3.1703,3.1715,3.1696,3.1701,3.168,3.1682,3.1603,3.1595,3.1677,3.1676,3.1676,0,3.146,3.1453,3.1487,3.1491,3.1504,3.1508,3.1515,3.1552,3.1557,3.1581,3.1575,3.1585,3.1595,3.1604,3.1631,3.1642,3.1656,3.1628,3.1657,3.1649,3.1657,3.1658,3.1658,3.1621,3.162,3.1619,3.1618,0,3.1383,3.14,3.1408,3.1423,3.143,3.1443,3.1458,3.1459,3.15,3.1504,3.1513,3.152,3.1536,3.1546,3.1562,3.1577,3.1605,3.1609,3.1605,3.1596,3.1586,3.1593,3.168,3.161,3.1611,3.1612,3.1612,3.1612,3.1322,3.1319,3.1343,3.1352,3.1368,3.1382,3.1382,3.1406,3.1413,3.143,3.1451,3.1457,3.1479,3.1504,3.1517,3.1523,3.1538,3.1532,3.1531,3.1529,3.1525,3.1585,3.1525,3.1526,3.1526,3.1526,3.1526,0,3.1248,3.1267,3.1275,3.1296,3.1303,3.133,3.1349,3.1354,3.1359,3.1377,3.1387,3.1398,3.1409,3.1437,3.1451,3.145,3.1463,3.1452,3.1453,3.1456,3.151,3.1512,3.1441,3.1441,3.1441,3.1441,3.1441,3.1441,3.121,3.1206,3.1227,3.1232,3.125,3.1257,3.1266,3.128,3.1295,3.1306,3.1315,3.1335,3.1358,3.1374,3.1385,3.1394,3.1397,3.1382,3.1395,3.1444,3.1452,3.146,3.1463,3.1383,3.1383,3.1342,3.1341,3.1341]}]]